This demonstration page uses our WeatherBlox Daily Observations layout. Learn more.

Left ArrowRight Arrow

38.20091, -84.87328

Hourly Observations for August 23, 2016

Temp ( °F °C ) Dew Point ( °F °C ) Humidity (%) Winds ( mph kmh ) Pressure ( in mb ) Visibility ( mi km ) Precip ( " mm )
12:53 am 00:53 Clear 62 16.7 58 14.4 86 86 Calm 30.22 1023 10 16 0.00 0.00
1:53 am 01:53 Clear 62 16.7 58 14.4 86 86 Calm 30.22 1023 10 16 0.00 0.00
2:53 am 02:53 Clear 61 16.1 57 13.9 87 87 Calm 30.22 1023 10 16 0.00 0.00
3:53 am 03:53 Clear 60 15.6 57 13.9 90 90 Calm 30.22 1023 10 16 0.00 0.00
4:53 am 04:53 Clear 59 15 56 13.3 90 90 Calm 30.22 1024 10 16 0.00 0.00
5:43 am 05:43 Mostly Clear 58 14.4 55 12.8 90 90 Calm 30.24 1024 8 13 0.00 0.00
5:53 am 05:53 Mostly Cloudy with Mist and Fog 58 14.4 55 12.8 90 90 Calm 30.23 1024 1 1 0.00 0.00
6:02 am 06:02 Partly Cloudy with Mist and Fog 58 14.4 56 13.3 93 93 Calm 30.24 1024 1 2 0.00 0.00
6:10 am 06:10 Mostly Clear 58 14.4 55 12.8 90 90 Calm 30.24 1024 10 16 0.00 0.00
6:44 am 06:44 Partly Cloudy with Mist and Fog 57 13.9 54 12.2 90 90 Calm 30.27 1025 2 3 0.00 0.00
6:53 am 06:53 Partly Cloudy with Mist and Fog 58 14.4 55 12.8 90 90 Calm 30.24 1024 5 8 0.00 0.00
7:53 am 07:53 Sunny 60 15.6 57 13.9 90 90 Calm 30.26 1025 10 16 0.00 0.00
8:53 am 08:53 Sunny 66 18.9 60 15.6 81 81 Calm 30.27 1025 10 16 0.00 0.00
9:53 am 09:53 Sunny 71 21.7 60 15.6 68 68 SE 5 7 30.27 1025 10 16 0.00 0.00
10:53 am 10:53 Sunny 77 25 61 16.1 58 58 ESE 7 11 30.28 1025 10 16 0.00 0.00
11:53 am 11:53 Sunny 79 26.1 58 14.4 49 49 VRB 7 11 30.27 1025 10 16 0.00 0.00
12:53 pm 12:53 Sunny 80 26.7 57 13.9 45 45 VRB 5 7 30.26 1025 10 16 0.00 0.00
1:53 pm 13:53 Sunny 81 27.2 57 13.9 44 44 ESE 6 9 30.24 1024 10 16 0.00 0.00
2:53 pm 14:53 Sunny 83 28.3 55 12.8 38 38 ENE 5 7 30.22 1023 10 16 0.00 0.00
3:53 pm 15:53 Sunny 83 28.3 57 13.9 41 41 SW 6 9 30.21 1023 10 16 0.00 0.00
4:53 pm 16:53 Sunny 83 28.3 59 15 44 44 SE 6 9 30.20 1023 10 16 0.00 0.00
5:53 pm 17:53 Sunny 82 27.8 58 14.4 44 44 SW 5 7 30.19 1023 10 16 0.00 0.00
6:53 pm 18:53 Sunny 80 26.7 61 16.1 52 52 SW 5 7 30.20 1023 10 16 0.00 0.00
7:53 pm 19:53 Sunny 76 24.4 63 17.2 64 64 WSW 5 7 30.20 1023 10 16 0.00 0.00
8:53 pm 20:53 Clear 71 21.7 64 17.8 79 79 Calm 30.20 1023 10 16 0.00 0.00
9:53 pm 21:53 Clear 69 20.6 63 17.2 81 81 Calm 30.20 1023 10 16 0.00 0.00
10:53 pm 22:53 Clear 69 20.6 64 17.8 84 84 Calm 30.19 1022 10 16 0.00 0.00
11:53 pm 23:53 Clear 69 20.6 64 17.8 84 84 Calm 30.19 1022 10 16 0.00 0.00

Powered by AerisWeather